Du Bois, PA

10:45 PM EDT on March 27, 2017 (GMT -0400)
Du Bois-Jefferson County

Weather History for KDUJ - October, 2011

Change the Weather History Date:

Saturday, October 15, 2011

  Actual Average Record
Temperature  
Mean Temperature 47 °F 49 °F  
Max Temperature 52 °F 59 °F 80 °F (1962)
Min Temperature 42 °F 40 °F 30 °F (2006)
Degree Days  
Heating Degree Days 18 16  
Month to date heating degree days 31 205  
Since 1 July heating degree days 31 451  
Cooling Degree Days 0 0  
Month to date cooling degree days 0 0  
Year to date cooling degree days 0 360  
Moisture  
Dew Point 39 °F    
Average Humidity 71    
Maximum Humidity 92    
Minimum Humidity 50    
Precipitation  
Precipitation 0.31 in 0.10 in 0.59 in (2014)
Month to date precipitation 0.94 1.55  
Sea Level Pressure  
Sea Level Pressure 29.61 in    
Wind  
Wind Speed 17 mph (WSW)    
Max Wind Speed 33 mph    
Max Gust Speed 43 mph    
Visibility 9 miles    
Events Rain , Thunderstorm    
T = Trace of Precipitation, MM = Missing Value Source: NWS Daily Summary

Daily Weather History Graph

Daily Weather History Graph

Search for Another Location

Airport or City:

Trip Planner

Search our weather history database for the weather conditions in past years. The results will help you decide how hot, cold, wet, or windy it might be!

Date:

Astronomy

Oct. 15, 2011 Rise Set
Actual Time 7:26 AM EDT 6:35 PM EDT
Civil Twilight 6:59 AM EDT 7:02 PM EDT
Nautical Twilight 6:27 AM EDT 7:34 PM EDT
Astronomical Twilight 5:55 AM EDT 8:06 PM EDT
Moon 8:28 PM EDT (10/15) 10:51 AM EDT (10/15)
Length of Visible Light 12h 03m
Length of Day
11h 08m
Waning Gibbous, 89% of the Moon is Illuminated
Oct 15
Waning Gibbous
Oct 19
Last Quarter
Oct 26
New
Nov 2
First Quarter
Nov 10
Full

Hourly Weather History & Observations

Time (EDT) Temp. Windchill Dew Point Humidity Pressure Visibility Wind Dir Wind Speed Gust Speed Precip Events Conditions
12:56 AM 46.9 °F - 39.0 °F 74% 29.55 in 10.0 mi SW 12.7 mph 19.6 mph N/A   Mostly Cloudy
1:56 AM 48.9 °F - 39.9 °F 71% 29.55 in 10.0 mi SW 17.3 mph 24.2 mph N/A   Overcast
2:56 AM 48.0 °F - 39.9 °F 74% 29.56 in 10.0 mi SW 13.8 mph - N/A   Overcast
3:56 AM 46.9 °F - 41.0 °F 80% 29.57 in 6.0 mi WNW 16.1 mph 26.5 mph 0.04 in Rain Rain
4:01 AM 44.6 °F 37.2 °F 39.2 °F 81% 29.57 in 3.0 mi WNW 17.3 mph - 0.07 in Rain Heavy Rain
4:05 AM 44.6 °F 38.8 °F 37.4 °F 76% 29.56 in 2.5 mi West 11.5 mph 23.0 mph 0.10 in Rain Heavy Rain
4:11 AM 42.8 °F 36.6 °F 37.4 °F 81% 29.56 in 3.0 mi West 11.5 mph - 0.16 in Rain Heavy Rain
4:20 AM 42.8 °F 35.4 °F 39.2 °F 87% 29.56 in 6.0 mi WSW 15.0 mph 21.9 mph 0.18 in Rain , Thunderstorm Light Thunderstorms and Rain
4:29 AM 42.8 °F 36.6 °F 41.0 °F 93% 29.57 in 10.0 mi WSW 11.5 mph - 0.18 in   Overcast
4:56 AM 44.1 °F 36.5 °F 42.1 °F 93% 29.58 in 10.0 mi WSW 17.3 mph - 0.19 in   Overcast
5:56 AM 43.0 °F 37.2 °F 39.9 °F 89% 29.59 in 10.0 mi WSW 10.4 mph - 0.00 in   Overcast
6:56 AM 45.0 °F 39.7 °F 42.1 °F 90% 29.58 in 10.0 mi SW 10.4 mph - N/A   Overcast
7:47 AM 46.4 °F 40.1 °F 42.8 °F 87% 29.55 in 10.0 mi SW 15.0 mph 25.3 mph 0.00 in Rain Light Rain
7:56 AM 46.0 °F 39.6 °F 42.1 °F 86% 29.56 in 10.0 mi SW 15.0 mph - 0.01 in Rain Light Rain
8:16 AM 44.6 °F 36.1 °F 42.8 °F 93% 29.56 in 2.5 mi WSW 21.9 mph 31.1 mph 0.05 in Rain Light Rain
8:26 AM 44.6 °F 37.8 °F 42.8 °F 93% 29.57 in 5.0 mi West 15.0 mph 28.8 mph 0.07 in Rain Light Rain
8:52 AM 44.6 °F 37.4 °F 42.8 °F 93% 29.57 in 10.0 mi SW 16.1 mph 24.2 mph 0.07 in   Overcast
8:56 AM 45.0 °F 38.9 °F 42.1 °F 90% 29.58 in 10.0 mi SW 12.7 mph 24.2 mph 0.07 in   Overcast
9:43 AM 46.4 °F 39.5 °F 41.0 °F 81% 29.57 in 10.0 mi SW 17.3 mph 25.3 mph N/A   Overcast
9:56 AM 46.0 °F 39.6 °F 41.0 °F 83% 29.58 in 10.0 mi SW 15.0 mph 26.5 mph N/A   Overcast
10:08 AM 46.4 °F 40.1 °F 39.2 °F 76% 29.57 in 10.0 mi SW 15.0 mph 26.5 mph N/A   Overcast
10:25 AM 46.4 °F 38.5 °F 39.2 °F 76% 29.58 in 10.0 mi WSW 21.9 mph 31.1 mph N/A   Overcast
10:33 AM 46.4 °F 38.7 °F 39.2 °F 76% 29.58 in 10.0 mi SW 20.7 mph 31.1 mph N/A   Overcast
10:56 AM 46.9 °F - 39.0 °F 74% 29.59 in 10.0 mi SW 24.2 mph 32.2 mph N/A   Overcast
11:10 AM 48.2 °F - 39.2 °F 71% 29.58 in 10.0 mi SW 19.6 mph 35.7 mph N/A   Overcast
11:56 AM 46.9 °F - 39.0 °F 74% 29.60 in 10.0 mi SW 17.3 mph 32.2 mph 0.00 in Rain Light Rain
12:56 PM 46.9 °F - 37.9 °F 71% 29.61 in 10.0 mi WSW 20.7 mph 28.8 mph 0.00 in Rain Light Rain
1:56 PM 51.1 °F - 39.0 °F 63% 29.60 in 10.0 mi WSW 28.8 mph 34.5 mph 0.00 in   Overcast
2:56 PM 50.0 °F - 37.0 °F 61% 29.62 in 10.0 mi WSW 24.2 mph 42.6 mph N/A   Overcast
3:56 PM 51.1 °F - 37.0 °F 59% 29.65 in 10.0 mi WSW 16.1 mph 34.5 mph N/A   Overcast
4:56 PM 52.0 °F - 35.1 °F 53% 29.66 in 10.0 mi WSW 20.7 mph 34.5 mph N/A   Overcast
5:56 PM 51.1 °F - 35.1 °F 54% 29.68 in 10.0 mi WSW 15.0 mph 31.1 mph N/A   Overcast
6:56 PM 51.1 °F - 35.1 °F 54% 29.71 in 10.0 mi West 13.8 mph 23.0 mph N/A   Overcast
7:56 PM 51.1 °F - 35.1 °F 54% 29.74 in 10.0 mi West 15.0 mph 21.9 mph N/A   Overcast
8:56 PM 51.1 °F - 35.1 °F 54% 29.76 in 10.0 mi West 17.3 mph - N/A   Overcast
9:56 PM 51.8 °F - 33.8 °F 50% 29.77 in 10.0 mi West 15.0 mph 25.3 mph N/A   Overcast
10:56 PM 50.0 °F - 33.1 °F 52% 29.80 in 10.0 mi West 18.4 mph 29.9 mph N/A   Overcast